Meath Environmental Platform

Observations for Trim Market St

Time AQI Temp °C Hum % Pres Pa CO μg/m³ H₂S μg/m³ NO μg/m³ NO₂ μg/m³ O₃ μg/m³ SO₂ μg/m³ PM1 μg/m³ PM2.5 μg/m³ PM10 μg/m³
Wednesday 19 August 2026
06:39 2 13.9 86 2,147,483,647 0.4 0 2.63 11.66 49.51 0 0.71 1.36 4.35
06:38 2 13.9 86 2,147,483,647 0.41 0 2.62 12.14 56.16 0 0.71 1.36 4.35
06:37 2 13.9 86 2,147,483,647 0.42 0 2.61 11.66 48.3 0 0.71 0.9 3.82
06:35 2 13.9 86 2,147,483,647 0.4 0 2.7 10.5 47.03 0 0.71 1.36 5.41
06:22 2 13.7 86 2,147,483,647 0.41 0 2.69 18.27 42.88 0 0.71 2.3 5.41
06:21 2 13.7 86 2,147,483,647 0.4 0 2.67 16.37 43.21 0 0.71 1.37 4.87
06:20 2 13.7 86 2,147,483,647 0.42 0 2.67 10.83 48.83 0 1.43 1.84 4.87
06:17 2 13.6 86 2,147,483,647 0.41 0 2.69 11.2 54.24 0 0.71 1.38 4.34
05:59 2 13.4 85 2,147,483,647 0.37 0 2.76 11.5 52.87 0 0 1.41 4.31
05:58 2 13.4 85 2,147,483,647 0.38 0 2.76 10.08 48.07 0 0 0.95 4.31
05:57 2 13.4 85 2,147,483,647 0.37 0 2.75 8.91 51.22 0 1.43 1.88 4.85
05:56 2 13.4 85 2,147,483,647 0.37 0 2.75 10.11 53.45 0 0.71 1.42 4.84
05:55 2 13.4 85 2,147,483,647 0.37 0 2.78 11.68 52.4 0 0.71 1.42 4.84
05:54 2 13.4 85 2,147,483,647 0.36 0 2.78 11.15 53.13 0 0.71 2.35 5.38
05:53 2 13.4 85 2,147,483,647 0.36 0 2.79 9.66 45.93 0 1.43 2.35 5.38
05:52 2 13.4 85 2,147,483,647 0.37 0 2.79 9.68 50.35 0 0.71 1.89 4.84
05:50 2 13.4 85 2,147,483,647 0.34 0 2.76 9.02 49.64 0 0.71 1.43 4.3
05:49 2 13.3 85 2,147,483,647 0.35 0 2.81 10.97 48.6 0 1.43 2.37 5.37
05:48 2 13.3 85 2,147,483,647 0.35 0 2.8 9.68 54.65 0 0.71 1.9 5.37
05:43 2 13.3 84 2,147,483,647 0.32 0 2.81 8.48 53.38 0 0.71 1.44 5.37